Home   Weather   Södertälje   Past weeks

Flag for Sweden Past Weather in Södertälje, Sweden — Yesterday and Last 2 Weeks

Now
52 °F

Light fog.


Feels Like: 51 °F
Forecast: 51 / 64 °F
Wind: 3 mph from Southeast

Location: Stockholm Bromma Airport

Current Time: Sep 27, 2016 at 12:36:48 AM

Latest Report: Sep 26, 2016 at 11:50 PM


Visibility: 0 mi

Pressure: 30.27 "Hg

Humidity: 94%

Dew Point: 50 °F

Location of SödertäljeLocation

Past Weather in Södertälje — Graph

°F

Södertälje Temperature Yesterday

Maximum temperature yesterday: 66 °F (at 1:20 PM)
Minimum temperature yesterday: 50 °F (at 3:20 AM)
Average temperature yesterday: 58 °F

High & Low Weather Summary for the Past Weeks

 TemperatureHumidityPressure
High73 °F (Sep 13, 4:50 PM)100% (Sep 12, 5:50 AM)30.27 "Hg (Sep 12, 5:50 AM)
Low41 °F (Sep 17, 3:20 AM)33% (Sep 12, 5:50 PM)29.95 "Hg (Sep 23, 11:20 PM)
Average57 °F75%30.15 "Hg
* Reported Sep 11 11:20 PM — Sep 26 11:20 PM, Södertälje, Weather by CustomWeather, © 2016

Note: Actual official high and low records may vary slightly from our data, if they occured in-between our weather recording intervals... More about our weather records

Advertising

Södertälje Weather History for the Previous 24 Hours

Scroll right to see more
 ConditionsComfort  
Time TempWeatherWind HumidityBarometerVisibility
11:20 PM
Mon, Sep 26
52 °FLight fog.3 mph94%30.27 "Hg1 mi
10:50 PM52 °FFog.3 mph100%30.27 "Hg6 mi
10:20 PM52 °FCool.2 mph100%30.27 "HgN/A
9:50 PM54 °FClear.3 mph94%30.27 "Hg10 mi
9:20 PM55 °FClear.2 mph88%30.27 "Hg10 mi
8:50 PM57 °FClear.3 mph82%30.27 "Hg10 mi
8:20 PM57 °FPassing clouds.5 mph82%30.27 "HgN/A
7:50 PM57 °FClear.7 mph82%30.27 "Hg10 mi
7:20 PM59 °FClear.6 mph77%30.27 "Hg10 mi
6:50 PM59 °FClear.7 mph72%30.24 "Hg10 mi
6:20 PM61 °FSunny.7 mph68%30.24 "Hg10 mi
5:50 PM61 °FSunny.7 mph68%30.24 "Hg10 mi
5:20 PM63 °FSunny.8 mph64%30.24 "Hg10 mi
4:50 PM64 °FPassing clouds.8 mph60%30.24 "HgN/A
4:20 PM64 °FSunny.9 mph60%30.24 "Hg10 mi
3:50 PM66 °FPassing clouds.9 mph60%30.24 "HgN/A
3:20 PM66 °FPassing clouds.9 mph60%30.24 "HgN/A
2:50 PM66 °FPassing clouds.9 mph60%30.24 "HgN/A
2:20 PM66 °FPassing clouds.9 mph60%30.24 "HgN/A
1:50 PM66 °FScattered clouds.10 mph60%30.24 "HgN/A
1:20 PM66 °FScattered clouds.10 mph60%30.24 "HgN/A
12:50 PM64 °FScattered clouds.10 mph64%30.24 "HgN/A
12:20 PM63 °FScattered clouds.10 mph68%30.24 "HgN/A
11:50 AM63 °FScattered clouds.8 mph68%30.24 "HgN/A
11:20 AM63 °FScattered clouds.9 mph68%30.24 "HgN/A
10:50 AM61 °FScattered clouds.8 mph77%30.24 "HgN/A
10:20 AM61 °FScattered clouds.8 mph77%30.24 "HgN/A
9:50 AM61 °FScattered clouds.9 mph77%30.24 "HgN/A
9:20 AM59 °FPassing clouds.10 mph77%30.24 "HgN/A
8:50 AM59 °FPassing clouds.8 mph77%30.24 "HgN/A
8:20 AM57 °FSunny.5 mph82%30.24 "Hg10 mi
7:50 AM54 °FPassing clouds.3 mph94%30.24 "HgN/A
7:20 AM54 °FPassing clouds.5 mph88%30.21 "HgN/A
6:50 AM54 °FSunny.6 mph94%30.21 "Hg10 mi
6:20 AM54 °FClear.6 mph94%30.21 "Hg10 mi
5:50 AM52 °FClear.3 mph100%30.21 "Hg10 mi
5:20 AM52 °FCool.3 mph100%30.21 "HgN/A
4:50 AM52 °FPassing clouds.3 mph100%30.21 "Hg6 mi
4:20 AM50 °FLight fog.5 mph100%30.21 "Hg2 mi
3:50 AM50 °FLight fog.No wind100%30.21 "Hg0 mi
3:20 AM50 °FLight fog.1 mph100%30.21 "Hg0 mi
2:50 AM52 °FLight fog.3 mph100%30.21 "Hg0 mi
2:20 AM52 °FFog.3 mph94%30.21 "Hg0 mi
1:50 AM52 °FMostly cloudy.5 mph100%30.21 "Hg4 mi
1:20 AM54 °FOvercast.5 mph94%30.21 "HgN/A
12:50 AM54 °FOvercast.3 mph94%30.21 "HgN/A
12:20 AM55 °FOvercast.3 mph88%30.21 "HgN/A
Weather by CustomWeather, © 2016

See weather overviewHow to use our weather pages